Weather History for Blackwell, OK

Change the Weather History Date:

Saturday, October 5, 2013

  Actual Average (KPNC) Record (KPNC)
Temperature  
Mean Temperature 56 °F -  
Max Temperature 66 °F 81 °F 95 °F (1956)
Min Temperature 46 °F 56 °F 39 °F (1964)
Degree Days  
Heating Degree Days 9    
Growing Degree Days 6 (Base 50)    
Moisture  
Dew Point 36 °F    
Average Humidity 51    
Maximum Humidity 76    
Minimum Humidity 28    
Precipitation  
Precipitation 0.00 in - - ()
Sea Level Pressure  
Sea Level Pressure 30.05 in    
Wind  
Wind Speed 16 mph (NW)    
Max Wind Speed 23 mph    
Max Gust Speed 28 mph    
Visibility 10 miles    
Events      
Averages and records for this station are not official NWS values.
T = Trace of Precipitation, MM = Missing Value Source: NWS Daily Summary

Daily Weather History Graph

Daily Weather History Graph

Search for Another Location

Airport:

Trip Planner

Search our weather history database for the weather conditions in past years. The results will help you decide how hot, cold, wet, or windy it might be!

Date:

Astronomy

Oct. 05, 2013 Rise Set
Actual Time 7:28 AM CDT 7:06 PM CDT
Civil Twilight 7:02 AM CDT 7:32 PM CDT
Nautical Twilight 6:32 AM CDT 8:02 PM CDT
Astronomical Twilight 6:02 AM CDT 8:32 PM CDT
Moon 8:07 AM CDT (10/5) 7:28 PM CDT (10/5)
Length of Visible Light 12h 29m
Length of Day
11h 38m
New Moon, 1% of the Moon is Illuminated
Oct 5
New Moon
Oct 11
First Quarter
Oct 18
Full
Oct 26
Last Quarter
Nov 3
New

Hourly Weather History & Observations

Time (CDT) Temp. Windchill Dew Point Humidity Pressure Visibility Wind Dir Wind Speed Gust Speed Precip Events Conditions
12:15 AM 59.0 °F - 42.8 °F 55% 29.98 in 10.0 mi NNW 23.0 mph 27.6 mph N/A   Overcast
12:35 AM 57.2 °F - 42.8 °F 59% 29.97 in 10.0 mi NNW 19.6 mph 25.3 mph N/A   Overcast
12:55 AM 57.2 °F - 42.8 °F 59% 29.98 in 10.0 mi North 15.0 mph - N/A   Overcast
1:15 AM 57.2 °F - 41.0 °F 55% 29.98 in 10.0 mi North 13.8 mph 21.9 mph N/A   Overcast
1:35 AM 57.2 °F - 41.0 °F 55% 30.00 in 10.0 mi North 18.4 mph 23.0 mph N/A   Overcast
1:55 AM 55.4 °F - 39.2 °F 54% 30.02 in 10.0 mi North 17.3 mph 24.2 mph N/A   Overcast
2:15 AM 55.4 °F - 39.2 °F 54% 30.02 in 10.0 mi North 11.5 mph - N/A   Scattered Clouds
2:35 AM 55.4 °F - 37.4 °F 51% 30.02 in 10.0 mi NNW 19.6 mph 24.2 mph N/A   Scattered Clouds
2:55 AM 53.6 °F - 37.4 °F 54% 30.01 in 10.0 mi NNW 20.7 mph - N/A   Overcast
3:15 AM 53.6 °F - 37.4 °F 54% 30.02 in 10.0 mi NNW 13.8 mph - N/A   Mostly Cloudy
3:35 AM 53.6 °F - 37.4 °F 54% 30.02 in 10.0 mi NNW 15.0 mph 19.6 mph N/A   Overcast
3:55 AM 53.6 °F - 39.2 °F 58% 30.02 in 10.0 mi NW 16.1 mph 20.7 mph N/A   Overcast
4:15 AM 51.8 °F - 37.4 °F 58% 30.05 in 10.0 mi NW 16.1 mph 21.9 mph N/A   Overcast
4:35 AM 51.8 °F - 35.6 °F 54% 30.06 in 10.0 mi NNW 16.1 mph 23.0 mph N/A   Overcast
4:55 AM 51.8 °F - 35.6 °F 54% 30.06 in 10.0 mi NNW 16.1 mph - N/A   Overcast
5:15 AM 50.0 °F - 37.4 °F 62% 30.06 in 10.0 mi NNW 16.1 mph - N/A   Overcast
5:35 AM 50.0 °F - 37.4 °F 62% 30.06 in 10.0 mi NW 15.0 mph 18.4 mph N/A   Overcast
5:55 AM 50.0 °F - 35.6 °F 58% 30.07 in 10.0 mi NW 18.4 mph 23.0 mph N/A   Overcast
6:15 AM 50.0 °F - 37.4 °F 62% 30.06 in 10.0 mi NNW 15.0 mph 20.7 mph N/A   Overcast
6:35 AM 50.0 °F - 35.6 °F 58% 30.06 in 10.0 mi NW 18.4 mph 25.3 mph N/A   Overcast
6:55 AM 50.0 °F - 37.4 °F 62% 30.06 in 10.0 mi NW 11.5 mph 19.6 mph N/A   Overcast
7:15 AM 50.0 °F - 35.6 °F 58% 30.06 in 10.0 mi NW 15.0 mph 23.0 mph N/A   Overcast
7:35 AM 50.0 °F - 35.6 °F 58% 30.06 in 10.0 mi NW 17.3 mph 21.9 mph N/A   Overcast
7:55 AM 50.0 °F - 35.6 °F 58% 30.07 in 10.0 mi NW 17.3 mph - N/A   Overcast
8:15 AM 50.0 °F - 35.6 °F 58% 30.09 in 10.0 mi NW 16.1 mph 20.7 mph N/A   Overcast
8:35 AM 50.0 °F - 35.6 °F 58% 30.09 in 10.0 mi NW 12.7 mph 19.6 mph N/A   Overcast
8:55 AM 50.0 °F - 35.6 °F 58% 30.10 in 10.0 mi NW 15.0 mph - N/A   Overcast
9:15 AM 50.0 °F - 35.6 °F 58% 30.12 in 10.0 mi NW 13.8 mph 18.4 mph N/A   Overcast
9:35 AM 50.0 °F - 35.6 °F 58% 30.13 in 10.0 mi NW 17.3 mph - N/A   Overcast
9:55 AM 50.0 °F - 35.6 °F 58% 30.13 in 10.0 mi NW 17.3 mph 23.0 mph N/A   Overcast
10:15 AM 51.8 °F - 35.6 °F 54% 30.14 in 10.0 mi NW 19.6 mph - N/A   Overcast
10:35 AM 51.8 °F - 35.6 °F 54% 30.15 in 10.0 mi WNW 17.3 mph 24.2 mph N/A   Overcast
10:55 AM 53.6 °F - 35.6 °F 51% 30.14 in 10.0 mi NW 19.6 mph - N/A   Overcast
11:15 AM 53.6 °F - 35.6 °F 51% 30.14 in 10.0 mi NW 16.1 mph 23.0 mph N/A   Mostly Cloudy
11:35 AM 55.4 °F - 35.6 °F 47% 30.13 in 10.0 mi NNW 18.4 mph 24.2 mph N/A   Partly Cloudy
11:55 AM 55.4 °F - 35.6 °F 47% 30.13 in 10.0 mi WNW 20.7 mph 26.5 mph N/A   Clear
12:15 PM 55.4 °F - 35.6 °F 47% 30.13 in 10.0 mi NW 18.4 mph 26.5 mph N/A   Clear
12:35 PM 55.4 °F - 35.6 °F 47% 30.12 in 10.0 mi NW 16.1 mph 23.0 mph N/A   Clear
12:55 PM 57.2 °F - 35.6 °F 44% 30.12 in 10.0 mi NW 11.5 mph 21.9 mph N/A   Clear
1:15 PM 57.2 °F - 35.6 °F 44% 30.11 in 10.0 mi NW 16.1 mph 25.3 mph N/A   Clear
1:35 PM 59.0 °F - 35.6 °F 42% 30.10 in 10.0 mi WNW 15.0 mph 20.7 mph N/A   Clear
1:55 PM 59.0 °F - 35.6 °F 42% 30.09 in 10.0 mi WNW 15.0 mph 25.3 mph N/A   Clear
2:15 PM 60.8 °F - 35.6 °F 39% 30.08 in 10.0 mi NW 17.3 mph 20.7 mph N/A   Clear
2:35 PM 62.6 °F - 33.8 °F 34% 30.07 in 10.0 mi NNW 15.0 mph 23.0 mph N/A   Clear
2:55 PM 62.6 °F - 33.8 °F 34% 30.05 in 10.0 mi WNW 17.3 mph 23.0 mph N/A   Clear
3:15 PM 64.4 °F - 33.8 °F 32% 30.04 in 10.0 mi West 10.4 mph 21.9 mph N/A   Clear
3:35 PM 64.4 °F - 32.0 °F 30% 30.03 in 10.0 mi WNW 16.1 mph 20.7 mph N/A   Clear
3:55 PM 66.2 °F - 32.0 °F 28% 30.02 in 10.0 mi WNW 16.1 mph 20.7 mph N/A   Clear
4:15 PM 66.2 °F - 32.0 °F 28% 30.02 in 10.0 mi NW 12.7 mph - N/A   Clear
4:35 PM 66.2 °F - 32.0 °F 28% 30.01 in 10.0 mi NW 16.1 mph 23.0 mph N/A   Clear
4:55 PM 66.2 °F - 32.0 °F 28% 30.01 in 10.0 mi WNW 17.3 mph 25.3 mph N/A   Clear
5:15 PM 66.2 °F - 32.0 °F 28% 30.01 in 10.0 mi WNW 17.3 mph 24.2 mph N/A   Clear
5:35 PM 66.2 °F - 32.0 °F 28% 30.01 in 10.0 mi WNW 18.4 mph 24.2 mph N/A   Clear
5:55 PM 66.2 °F - 32.0 °F 28% 30.01 in 10.0 mi NW 13.8 mph - N/A   Clear
6:15 PM 64.4 °F - 32.0 °F 30% 30.01 in 10.0 mi WNW 11.5 mph - N/A   Clear
6:35 PM 64.4 °F - 32.0 °F 30% 30.01 in 10.0 mi WNW 12.7 mph - N/A   Clear
6:55 PM 62.6 °F - 33.8 °F 34% 30.01 in 10.0 mi WNW 9.2 mph - N/A   Clear
7:15 PM 59.0 °F - 35.6 °F 42% 30.02 in 10.0 mi WNW 8.1 mph - N/A   Clear
7:35 PM 55.4 °F - 37.4 °F 51% 30.02 in 10.0 mi West 6.9 mph - N/A   Clear
7:55 PM 55.4 °F - 37.4 °F 51% 30.03 in 10.0 mi West 8.1 mph - N/A   Scattered Clouds
8:15 PM 53.6 °F - 39.2 °F 58% 30.03 in 10.0 mi WNW 5.8 mph - N/A   Scattered Clouds
8:35 PM 55.4 °F - 37.4 °F 51% 30.04 in 10.0 mi WNW 8.1 mph - N/A   Clear
8:55 PM 53.6 °F - 37.4 °F 54% 30.04 in 10.0 mi NW 6.9 mph - N/A   Clear
9:15 PM 50.0 °F - 39.2 °F 66% 30.04 in 10.0 mi West 5.8 mph - N/A   Clear
9:35 PM 50.0 °F - 37.4 °F 62% 30.04 in 10.0 mi West 4.6 mph - N/A   Clear
9:55 PM 50.0 °F - 39.2 °F 66% 30.04 in 10.0 mi West 5.8 mph - N/A   Partly Cloudy
10:15 PM 48.2 °F - 41.0 °F 76% 30.04 in 10.0 mi WSW 5.8 mph - N/A   Scattered Clouds
10:35 PM 46.4 °F 42.9 °F 39.2 °F 76% 30.04 in 10.0 mi WSW 6.9 mph - N/A   Scattered Clouds
10:55 PM 46.4 °F 42.9 °F 39.2 °F 76% 30.04 in 10.0 mi WSW 6.9 mph - N/A   Scattered Clouds
11:15 PM 46.4 °F 42.9 °F 39.2 °F 76% 30.05 in 10.0 mi WSW 6.9 mph - N/A   Scattered Clouds
11:35 PM 48.2 °F - 39.2 °F 71% 30.05 in 10.0 mi West 8.1 mph - N/A   Partly Cloudy
11:55 PM 46.4 °F 41.5 °F 39.2 °F 76% 30.04 in 10.0 mi WSW 10.4 mph - N/A   Partly Cloudy